[Date Prev][Date Next][Thread Prev][Thread Next][Date Index][Thread Index]

[jamsat-news:1729] jas2info #282



========================   最新情報   ==============================

        Last updated  06Jul2002  19:30(JST)   #282

====================================================================
   
1)アマチュア通信衛星情報、FOシリーズの軌道要素、テレメトリ、QSOの
   状況等をまとめてみました.
   
 FO−29の2002年7月6日(土)の17:53(JST)のパスでは
JARLのホームページのとうりアナログ運用でした。 今日までの観測した
テレメトリーと最終の分析結果を報告しておきます。

AS29060C  06Jul2002
17:54-18:15(JST)
AOS   MEL  LOS  Elev
 13   116  193  86.0
Freq. 435.804-.785MHz
(JAS-2 No.104 B 0-1040 )

HI HI AE 07 88 55 00 D4 66 A5 09 04 59 BF 6D 51 8B  9 95 7F 8D 8C 8E 8D 85 
HI HI AE 07 88 55 00 D4 66 A5 09 04 66 C0 6C 52 8D 8A 97 82 8D 8C 8F 8E 85 
HI HI AE 07 88 55 00 D4 66 A5 09 04 72 BF 6D 51 8E 8B 98 7C 8D 8B 8E 8D 85 
HI HI AE 07 88 55 00 D4 66 AE 09 04 7C BB 7D 55 8E 90 8D 9A 8C 8D 8E 8D 85 
HI HI AE 07 88 55 00 D4 66 A5 09 04 8O BB 6B 5A 92 8F 8D 8B 8D 8D 8E 8D 85 
HI HI AE 07 88 55 0O D4 66 A5 09 04 86 A9 7D 48 93 8F 8D 9C 8D 8B 8E 8D 85
HI HI AE 07 88 55 00 D4 66 A5 09 04 88 55 74 4C 99 92 8E 9B 8D 8B 8E 8D 85 
HI HI AE 07 88 55 00 D4 66 A5 09 04 7F 81 77 4C 95 90 8D 9A 83 8D SE 8D 85 
HI HI AE 07 88 55 00 D4 66 A5 09 04 75 72 6F 51 8F 8F 99 68 8D 8B 8E 8D 84 
HI HI AE 07 88 55 00 D4 66 A5 09 04 70 65 6A 53 8E 8A 97 74 8D 8C 8E 8D 84 
HI HI AE 07 88 55 00 D4 66 A5 09 04 68 59 6D 51 8D 8A 97 73 8D 8B 8E 8C 84 
HI HI AE 07 88 55 00 D4 66 A5 09 05 50 4F 70 50 8E 8B 98 72 8D 8B 8E 8C 84 
HI HI AE 07 88 55 00 D4 66 A5 09 04 5A 46 70 4F 8F 8T 98 63 8C 8B 8E 8C 84 
HI HI AE 07 88 55 00 D4 66 A5 09 04 56 40 6B 52 8E 8B 98 77 8C 8B 8E 8C 84 
HI HI AE 07 88 55 00 D4 66 A5 09 04 55 3C 69 53 8D 8E 8B 7A 8C 8B 8E 8C 84 
HI HI AE 07 88 55 00 D4 66 A5 09 94 56 3B 63 56 8C 89 86 7F 8C 8D 8E 8C 84 
HI HI AE 07 88 55 00 D4 66 A5 09 04 59 3A 5F 59 8B 88 94 8C 8C 8B 8E 8C 84 
HI HI AE 07 88 55 00 D4 66 A5 09 04 59 5D 89 86 93 79 8D 8C 8B 8E 8C 8C 84
HI HI AE 07 88 55 00 D4 66 A5 09 04 65 3B 58 59 89 86 92 70 8C 8B 8E 8C 84 

AS29033C  04Jul2002
17:59-18:15(JST)
AOS   MEL  LOS  Elev
 12   292  195  88.1
Freq. 435.804-.785MHz
(JAS-2 No.104 A 3460-3570 END )

                                                            91 8C 88 8D 85 
HI HI AE 07 88 55 00 D4 83 ED 09 4C 7C C2 76 4C 8D 8A 97 7F 91 8C 88 8C 85 
HI HI AE 07 88 55 00 D4 83 ED 09 4C 7E BD 75 4D 8D 89 97 67 91 8C 88 8C 85 
HI HI AE 07 88 55 00 D4 83 ED 09 4C 7E B6 76 4D 8E 8A 97 69 91 8B 88 8C 85 
HI HI AE 07 88 55 00 D4 83 ED 09 4C 7E AF 76 4C 8E 8A 97 77 91 8C 87 8C 85 
HI HI AE 07 88 55 00 D4 83 ED 09 4C 7C A7 75 4D 8E 8B 98 89 91 8C 87 8C 85 
HI HI AE 07 88 55 00 D4 83 ED 09 4C 79 9D 74 4E 8E 8B 98 83 91 8C 87 8C 85 
HI HI AE 07 88 55 00 D4 83 ED 09 4C 75 98 75 4E 8E 8D 98 84 91 8C 87 8C 84 
HI HI AE 07 88 55 00 D4 83 ED 09 4C 71 89 73 4D 8E 8B 98 80 91 8C 87 8C 85 
HI HI AE 07 88 55 00 D4 83 ED O9 4C 66 75 75 4D 8F 8B 98 80 91 8C 86 8C 84 
HI HI AE 07 88 55 00 D4 83 ED 09 4C 60 6C 76 4D 8F 8C 98 87 91 8C 86 8C 84
HI HI AE 07 88 55 00 D4 83 ED 09 4C 5B 63 76 4E 8F 8B 99 7F 90 8C 86 8C 84 
HI HI AE 07 88 55 00 D4 83 ED 09 4C 55 5C 76 4C 8F 8C 99 85 90 8C 86 8B 84 
HI HI AE 07 88 55 00 D4 83 ED 09 4C 51 55 76 4D 8F 8C 99 78 90 8C 86 8B 84 
HI HI AE 07 88 55 00 D4 83 ED 09 4C 4D 50 78 4B 90 8C 99 6D 90 8C 86 8B 84 
HI HI AT 07 88 55 00 D4 83 ED 09 4C 49 4C 79 4B 90 8C 99 77 90 8C 86 8B 84 
HI HI AE 07 88 55 00 D4 83 ED 09 4C 47 4A 79 4B 90 8C 9A 91 90 8C 85 8B 84 
HI HI AE 07 88 55 00 D4 83 ED 09 4C 46 48 79 4B 90 8C 9A 82 91 8C 85 8B 84 
HI HI AE 07 88 55 00 D4 83 ED 09 4C 4O 47 79 4B 90 8C 9A 81 91 8C 85 8B 84 
HI HI AE 07 88 55 00 D4 83 ED 09 4C 47 48 79 4B 90 8C 99 77 91 8C 85 8B 84 
HI HI AE 07 88 55 00 D4 83 ED 09 4C 48 49 78 4B 90 8C  

AS29020C  03Jul2002
18:54-19:07(JST)
AOS   MEL  LOS  Elev
358   290  222  28.1
Freq. 435.803-.786MHz
(JAS-2 No.104 A 2920-3460 )

                                                               8C 94 90 86 
HI HI AE 07 88 55 00 D4 21 68 09 1F 47 45 76 4D 91 8D 9B 72 8A 8C 94 90 85 
HI HI AE 07 88 55 00 D4 21 68 09 1F 49 47 73 4E 90 8D 9A 72 89 8C 94 90 86 
HI HI AE 07 88 55 00 D4 21 68 09 1F 4B 4A 70 4E 90 8C 99 52 8A 8C 94 90 85 
HI HI AE 07 88 55 00 D4 21 68 09 1F 4F 4D 6F 4F 90 8C 99 7B 89 8C 94 90 85 
HI HI AE 07 88 55 00 D4 21 68 09 1F 53 51 6C 51 8F 8B 98 71 89 8C 94 90 85 
HI HI AE 07 88 55 00 D4 21 68 09 1F 57 55 68 53 8E 8B 97 76 89 8D 94 90 86 
HI HI AE 07 88 55 00 D4 21 68 09 1F 5D 58 68 58 8D 8A 97 76 89 8D 94 90 86 
HI HI AE 07 88 55 00 D4 21 68 09 1F 63 5E 68 52 8D 8A 97 76 89 8D 94 90 86 
HI HI AE 07 88 55 00 D4 21 68 09 1F 69 63 68 53 8D 8A 97 7E 89 8D 94 8F 86 
HI HI AE 07 88 55 00 D4 21 68 09 1F 6E 67 68 53 8D 8A 97 76 89 8D 94 8F 86 
HI HI AE 07 88 55 00 D4 21 68 09 1F 74 6B 69 54 8D 8A 97 7D 89 8D 94 8F 86 
HI HI AE 07 88 55 00 D4 21 68 09 1F 7I 70 6A 53 8E 8A 97 76 89 8D 94 8F 86 
HI HI AE 07 88 55 00 D4 21 68 09 1F 7F 75 6B 52 8E 8B 98 7E 89 8D 94 8F 86 
HI HI AE 07 88 55 00 D4 21 68 08 1F 8O 79 6B 53 8E 8B 98 78 89 8D 94 8F 85 
HI HI AE 07 88 55 00 D4 21 68 09 1F 87 7D 6B 52 8F 8B 98 7D 89 8D 94 8F 86 
HI HI AE 07 88 55 00 D4 21 68 09 1F 8B 81 6A 52 8F 8C 98 7E 89 8D 94 8F 86 
HI HI AE 07 88 55 00 D4 21 68 09 1F 8D 9O 6A 52 8F 8B 98 7D 89 8E 94 8F 86 
   
------------------------ FO-29の軌道要素 ------------------------------        
 
  ■ 軌道要素1:「jamsat−keps:1221」より         
          SB KEPS @ AMSAT  $ORB02186.N
          2Line Orbital Elements 02186.AMSAT

HR AMSAT ORBITAL ELEMENTS FOR AMATEUR SATELLITES IN NASA FORMAT
FROM WA5QGD FORT WORTH,TX July 5, 2002
SEND SUBSCRIBE/UNSUBSCRIBE TO majordomo@amsat.org ONLY
BID: ORB02186.N

 DECODE 2-LINE ELSETS WITH THE FOLLOWING KEY:
 1 AAAAAU 00  0  0 BBBBB.BBBBBBBB  .CCCCCCCC  00000-0  00000-0 0  DDDZ
 2 AAAAA EEE.EEEE FFF.FFFF GGGGGGG HHH.HHHH III.IIII JJ.JJJJJJJJKKKKKZ
 KEY: A-CATALOGNUM B-EPOCHTIME C-DECAY D-ELSETNUM E-INCLINATION F-RAAN
 G-ECCENTRICITY H-ARGPERIGEE I-MNANOM J-MNMOTION K-ORBITNUM Z-CHECKSUM

FO-29
1 24278U 96046B   02186.53364810 -.00000024  00000-0  84823-5 0  5099
2 24278  98.5161   4.0082 0351612  87.7550 276.3794 13.52844491290470

 ■ 軌道要素2:「jamsat−keps:12018」より
 
       SB KEPS @ AMSAT  $ORB02186.O
       Orbital Elements  02186.OSCAR

HR AMSAT ORBITAL ELEMENTS FOR OSCAR SATELLITES
FROM WA5QGD FORT WORTH,TX July 5, 2002
SEND SUBSCRIBE/UNSUBSCRIBE TO majordomo@amsat.org ONLY
BID: ORB02186.O
TO ALL RADIO AMATEURS BT

Satellite: FO-29
Catalog number: 24278
Epoch time:      02186.53364810
Element set:     509
Inclination:       98.5161 deg
RA of node:         4.0082 deg
Eccentricity:    0.0351612
Arg of perigee:    87.7550 deg
Mean anomaly:     276.3794 deg
Mean motion:   13.52844491 rev/day
Decay rate:       -2.4e-07 rev/day^2
Epoch rev:           29047
Checksum:              308

-------------------  FO-29(JAS-2)のテレメトリに関する情報  ---------------------- 
 
2)上記2002年7月6日(土)のテレメトリの最終行を分析しておきます.

AS29060C  06Jul2002
17:54-18:15(JST)
AOS   MEL  LOS  Elev
 13   116  193  86.0
Freq. 435.804-.785MHz
(JAS-2 No.104 B 0-1040 )

HI HI AE 07 88 55 00 D4 66 A5 09 04 65 3B 58 59 89 86 92 70 8C 8B 8E 8C 84 

テレメトリ   内 容         換算算値 単 位
3C	磁気センサーZ軸=	49509.8	[nT]
3D	磁気センサX軸	=	28921.6	[nT]
4A	太陽電池発生電流=	 862.8	[mA]
4B	B充放電電流	=	 -255.6	[mA]
4C	B端子電圧	=	   14.7	[V]
4D	B中間端子電圧	=	    6.5	[V]
5A	バス電圧	=	   14.3	[V]
5B	JTA送信電力	=	  629.9	[mW]
5C 	構体温度1	=	   27.5	[℃]
5D	構体温度2	=	   27.9	[℃]
6A	構体温度3	=	   26.7	[℃]
6B	構体温度4	=	   27.5	[℃]
6C	Bセル温度	=	   30.6	[℃]

 ========================== FO-29(ふじ3号)のテレメトリ分析、QSO情報等 =====================
   
 3)[jamsat-bb:

 =================================================================================================
 
 4)JARL のホームページに運用予定が記載されていましたのでご紹介します.
       ( http://www.jarl.or.jp/Japanese/3_Fuji/new/uy.htm )
       
        *** 運用予定について ***

   4月01日(月) 〜 6月30日(日)アナログ系運用 

  *なお,運用予定は都合により,変更することがありますので,あらかじめご了承願います。

 照会先 : lab@jarl.or.jp

 最新の情報はテレホンサービス(03−3942−1000)をお聞きください。  
 以後の運用につきましては平成14年7月上旬にお知らせいたします。        
     
-----------------------    FO−20(JAS-1b)道要素   -------------------------
  
  ■ 軌道要素1 :出典はFO-29「ふじ3号」に同じ.
  
FO-20
1 20480U 90013C   02183.93773868 -.00000030  00000-0  18966-5 0 04121
2 20480 099.0187 185.3737 0540489 166.4218 195.2105 12.83318054580935
 
  ■ 軌道要素2 :出典はFO−29「ふじ3号」に同じ.
               
Satellite: FO-20
Catalog number: 20480
Epoch time:      02183.93773868
Element set:    0412
Inclination:      099.0187 deg
RA of node:       185.3737 deg
Eccentricity:    0.0540489
Arg of perigee:   166.4218 deg
Mean anomaly:     195.2105 deg
Mean motion:   12.83318054 rev/day
Decay rate:       -3.0e-07 rev/day^2
Epoch rev:           58093
Checksum:              312

-------------------------------------------------------------------------------- 
         ■ ふじ2号/FO−20/JAS-1b ■      
            
          「ふじ2号」 現況                                                                                  
             
   JAS-1b(ふじ2号)のCWテレメトリ信号に,1997年10月12日12時(JST)の
 日本上空通過時,3桁の数字が繰り返されるはずが3個の長音の繰り返しとなっているという
 異常が発見されました。この不具合は次の通過時からは回復していましたが13日15時20分の
 通過時に再び観測されました。現在はA0の送信が続いています。衛星のアナログ系中継モード
 動作は異常が無く,正常時のテレメトリ内容からは衛星の動作に異常は認められません。従って,
 直ちに衛星のミッションに影響することは無いと予想されますので,当面はアナログ系中継
 モードを継続します。衛星は既に打ち上げてから7年8ヶ月を経ておりますので,今後は監視を
 強化する予定です。アマチュア各位のレポートをお待ちします。
 -------------------------------------------------------------------------------- 
  1997年10月14日 00時35分 確認のテレメトリ音 151 KB (A0) 
  1997年10月14日 11時10分 確認のテレメトリ音 216 KB (異常キーイング) 

  以上 JARLのホ−ムページの http://www.jarl.or.jp/Japanese/3_Fuji/new/fuji.htm

===================== FO-20 ふじ2号 のテレメトリ観測結果 ====================

  3月8日(金)18:18(JST)の観測結果ではテレメトリは、以前観測した単一周波数の
正弦波がドップラー効果で周波数がずれていくのみの状態でした。
                                         
   =============   JAS-2 (ふじ3号)と現在までの情報   ===========
  
  A.電話によるふじ3号の運用情報
      社団法人日本アマチュア連盟によるサービス
           TEL .   03− 3942 − 1000
  B.アマチュア無線FAXサービス
      JARLによるふじ3号の軌道情報(オービットカレンダー)
         FAX No.  03− 3233 −0055
  C.WWWブラウザで情報を簡単に見れる人のためにJAS−2
     ふじ3号の衛星としての運用されるまでの名前)の概要、打ち上げ
     までの状況、運用中における状況を説明したホームページを紹介し
     ておきます.

     社団法人日本アマチュア無線連盟(JARL)のホームページ

          http://www.jarl.or.jp/Japanese/3_Fuji/jasmenu.htm
 
     宇宙開発事業団(NASDA)ホームページ 
          http://www.nasda.go.jp/
         打上げ衛星 :地球観測プラットフォーム技術衛星(ADEOS) 
                       アマチュア衛星3号(JAS-2)
          http://spaceboy.nasda.go.jp/note/eisei/j/Eis15h_j.html#Eis15h_01_j
     http://spaceboy.nasda.go.jp/note/eisei/j/Eis15i_j.html        

  D.JAMSATによる軌道情報の活用
        JAMSATのホームページまたはjamsat−kepsの軌道要素より
      衛星の軌道情報を得る.
     JAMSATホームページ
               URL    http://www.jamsat.or.jp
       上記ホームページでは各地で行われるアマチュア通信衛星に関する
      ミューティングのお知らせや世界のアマチュア衛星に関する情報が
      満載されています.

 ========================================================================  
     JAMSATのメンバーのご協力によりJH6MME(高山 秀造)が
    執筆・編集を担当しております.ご指摘の意見、疑問やこのようにしたら
    というアイデアがありましたら小さなことでもかまいませんので気軽に下
    記アドレスまでご連絡ください.jamsat−newsからjas2
    infoへの転載をJH4PHW局坂井さんに担当して頂いております.  
                  E-mail : jh6mme@jamsat.or.jp : jh4phw@jamsat.or.jp
 ===============================   END  ===============================